Theta_e
303 302 302 302 302 301 301 301 301 301 301 302 304 306 306 310 309 310 313 309 309 309 309 309 310 311 313 313 312 312 318 316 315 315 313 311 311 311 312 311 313 314 313 312 311
306 303 302 302 302 301 301 301 301 301 301 302 304 306 306 308 310 312 309 308 309 309 309 311 311 312 313 314 314 316 318 315 312 311 312 311 311 313 313 314 314 314 312 311 313
311 305 302 302 302 302 301 301 300 301 301 301 303 306 307 308 311 313 309 308 308 309 309 311 311 313 314 314 313 314 316 312 311 311 311 312 313 312 314 314 313 311 309 310 314
315 310 304 302 302 301 301 301 300 300 301 301 303 305 308 309 319 312 309 308 308 309 308 309 311 313 315 314 312 313 312 312 311 311 312 313 313 313 313 313 312 311 307 312 313
322 312 308 305 302 301 301 300 300 300 300 301 304 305 306 311 313 311 309 308 308 308 309 310 311 314 315 313 313 312 312 312 311 311 312 311 312 313 313 313 311 308 309 311 311
323 320 318 311 305 302 301 301 300 300 300 302 305 307 307 314 311 309 309 309 308 308 308 310 312 313 312 313 314 312 313 312 312 312 312 311 313 312 314 312 311 308 308 309 311
322 323 322 317 312 304 302 301 300 300 300 302 305 307 307 311 310 309 309 309 308 310 310 311 312 313 313 313 313 312 313 313 312 313 313 311 313 312 313 312 311 308 307 307 309
322 322 321 322 318 311 303 301 300 300 300 302 305 306 310 310 309 309 308 309 309 309 309 310 312 313 313 312 313 314 314 315 313 313 312 312 317 313 312 312 311 308 307 307 307
319 321 321 321 321 316 306 301 300 300 300 302 304 306 312 308 308 309 309 312 310 309 309 310 313 312 312 315 315 314 319 317 314 312 313 312 315 313 312 312 312 308 307 307 306
320 320 321 321 320 319 316 302 300 300 300 303 304 307 307 309 308 309 309 310 313 310 310 312 313 314 314 317 321 319 315 312 314 312 312 313 312 313 313 312 313 311 307 306 305
319 320 319 320 318 317 316 302 300 305 302 307 308 309 308 308 308 308 309 311 312 313 315 311 315 315 314 315 310 313 316 314 312 311 310 312 313 313 314 313 313 312 307 306 304
317 319 320 319 317 315 315 303 302 303 304 306 305 307 308 308 309 309 309 312 313 314 312 310 312 311 311 310 312 311 313 315 313 311 309 309 308 311 311 311 313 312 308 305 304
316 318 319 319 318 314 311 311 307 301 306 307 305 306 307 307 310 309 309 311 313 314 312 313 311 310 311 310 311 311 314 314 312 311 309 311 311 313 311 312 313 312 310 305 303
315 316 318 316 315 315 313 309 303 302 313 311 305 306 307 308 309 310 310 311 312 313 311 312 309 310 311 311 311 312 310 310 311 312 313 309 310 314 312 311 311 312 310 305 303
314 316 317 318 316 314 311 305 307 304 312 311 305 305 306 309 308 308 310 310 312 311 311 311 309 310 312 310 309 312 310 312 313 312 311 310 306 313 310 310 310 311 309 304 302
311 314 316 316 315 313 301 300 304 308 307 310 305 306 307 307 308 307 308 310 310 310 311 310 309 310 308 307 308 310 311 312 312 311 312 312 308 309 307 307 309 310 307 304 302
310 313 315 316 315 314 306 303 305 311 309 309 307 307 308 308 309 310 309 309 310 309 312 310 310 307 307 309 310 311 312 316 315 312 315 308 307 306 309 309 309 307 306 304 302
306 312 314 316 315 314 309 304 309 310 310 306 307 308 309 308 309 310 309 309 309 311 311 312 311 307 306 309 310 310 312 317 317 319 313 305 305 308 307 311 310 308 306 304 302
305 309 312 314 313 313 310 311 314 310 310 307 308 309 309 307 309 310 310 311 309 310 316 312 309 306 306 307 308 310 309 308 309 302 310 309 308 307 305 307 310 306 305 304 303
303 306 311 312 313 310 309 313 309 309 309 307 311 310 309 307 308 309 310 311 312 309 310 312 309 306 306 306 307 308 306 308 308 309 312 311 310 309 306 305 306 308 306 305 304
301 305 308 309 309 307 310 309 307 306 307 308 311 310 310 307 308 309 312 311 310 309 308 310 310 306 306 305 307 306 307 307 308 308 314 312 310 308 308 306 307 307 310 306 304
299 303 302 306 302 301 308 306 306 305 305 306 308 310 310 307 308 308 310 309 309 309 306 309 308 306 306 305 304 305 308 308 310 311 306 310 307 307 307 305 308 309 310 309 305
298 298 301 304 307 306 302 304 303 303 304 304 306 309 307 307 309 308 308 303 306 306 307 307 308 305 306 305 304 304 306 307 307 307 308 310 309 305 305 307 310 310 310 310 306
298 299 297 300 302 306 304 305 303 302 304 305 305 304 305 305 302 308 308 303 303 306 304 306 310 311 312 311 306 304 305 306 307 308 311 308 312 306 303 304 306 309 310 310 307
297 300 299 301 301 302 305 305 306 303 302 306 304 304 305 305 304 304 304 303 303 304 304 305 304 305 304 303 305 306 304 306 307 308 308 310 308 310 304 302 305 308 310 309 308
296 298 298 301 300 302 306 306 307 302 303 305 308 306 306 307 305 304 304 304 305 304 304 303 303 300 300 302 302 304 304 305 306 306 306 308 307 307 310 308 307 307 308 308 309
294 294 298 300 301 302 305 307 307 307 304 306 306 307 307 306 303 304 304 305 305 304 305 304 300 303 304 297 301 304 301 305 306 306 307 307 309 308 307 306 307 308 308 307 307
Wind_Speed
14 14 13 11 10 11 10 10 11 10 8 6 5 5 4 2 2 2 4 4 3 2 1 5 6 6 4 1 2 3 2 3 3 2 5 7 5 2 2 3 3 3 7 10 18
16 14 14 14 11 9 11 10 9 10 9 7 6 5 4 4 4 3 4 4 3 2 5 5 2 5 2 2 3 3 2 5 8 7 5 7 3 4 1 5 6 2 9 15 15
17 16 13 13 13 12 10 10 9 8 9 9 7 5 4 3 3 6 5 3 2 3 3 8 6 3 3 2 3 3 4 6 6 6 4 5 2 1 4 3 11 8 13 14 13
17 14 14 13 12 13 13 10 10 9 8 8 7 6 4 2 2 2 4 3 2 4 6 6 6 3 4 4 2 4 7 5 6 3 2 1 4 3 7 5 4 8 11 12 13
18 13 11 13 13 12 12 13 10 9 8 7 7 6 3 3 6 6 4 2 3 5 6 4 6 4 4 5 6 8 5 10 6 3 2 4 6 5 8 4 4 5 8 9 10
19 16 12 11 13 13 13 13 12 10 8 7 6 5 3 5 6 5 3 2 4 6 3 8 2 3 8 4 4 10 11 10 5 1 1 4 5 1 4 5 3 4 6 8 9
21 18 19 15 12 14 13 14 12 11 9 7 5 4 6 9 6 5 3 1 3 8 6 9 13 3 8 5 10 15 6 4 5 3 2 3 5 9 8 2 2 3 5 6 9
21 20 22 20 14 15 13 13 13 11 10 7 5 4 6 8 8 6 4 3 4 7 10 10 11 12 6 14 5 3 4 3 5 5 3 0 4 8 7 3 3 3 4 5 8
22 22 21 21 20 15 11 13 13 11 9 7 4 4 5 4 7 9 8 4 7 8 9 11 9 6 8 4 3 3 2 1 4 7 0 6 6 7 6 3 2 3 5 6 8
20 21 20 22 21 19 15 11 11 11 9 6 7 4 8 4 8 11 9 12 3 9 6 3 3 5 4 3 3 4 4 3 3 5 6 6 11 10 9 5 4 2 2 6 7
21 22 21 20 19 15 12 7 5 4 9 8 4 1 3 7 9 10 12 8 6 4 5 3 3 5 9 7 4 3 2 3 1 3 3 6 10 9 5 10 7 5 2 5 5
25 24 22 18 18 17 13 5 2 5 8 14 18 12 8 10 4 9 14 8 6 5 3 3 4 5 7 7 5 3 3 2 3 3 2 5 11 12 10 8 6 6 6 2 3
22 21 21 20 18 17 13 12 11 10 5 8 13 11 9 14 4 14 18 6 6 6 7 3 4 4 4 5 6 5 3 3 0 3 6 6 7 1 5 7 10 10 10 4 1
24 23 23 24 20 22 16 13 9 4 3 6 7 8 14 10 4 13 19 7 3 6 5 1 7 5 4 5 0 5 2 1 2 1 2 3 4 4 6 6 9 15 13 9 4
23 21 27 26 23 17 16 12 15 10 1 4 6 5 11 10 14 8 16 4 6 4 2 2 7 5 5 3 2 3 1 1 1 2 4 4 1 4 6 6 9 14 15 10 6
27 25 27 32 32 19 22 25 20 4 9 3 5 6 5 5 4 7 6 4 8 4 5 4 3 2 3 4 2 6 3 3 2 2 1 5 3 4 6 8 6 14 16 13 8
22 27 31 36 40 26 33 21 5 6 3 5 5 7 8 6 5 6 9 7 7 5 4 4 3 3 5 5 2 3 2 1 3 2 5 2 0 8 4 6 8 12 19 17 12
31 24 30 41 41 36 40 5 6 6 5 1 4 5 6 7 5 6 10 8 8 4 4 6 3 10 6 2 6 6 1 3 6 3 3 2 6 6 4 11 17 20 21 19 14
31 23 34 48 43 36 30 7 9 7 8 11 7 4 5 3 3 6 8 5 10 11 7 7 2 3 3 3 2 5 4 1 3 2 3 5 6 3 4 6 9 18 21 19 15
24 16 35 46 42 39 5 12 4 5 6 5 8 6 9 7 6 7 11 7 6 16 4 5 5 1 2 2 1 2 2 3 1 1 4 3 4 6 7 10 9 11 20 19 18
22 10 19 36 41 23 9 8 5 13 5 8 6 5 5 7 7 6 7 4 10 14 10 3 5 1 4 7 7 3 2 3 0 3 4 2 6 2 10 15 15 13 24 23 23
16 4 22 48 5 6 10 8 9 7 4 2 4 4 7 8 6 6 7 2 5 15 9 3 5 4 5 2 4 4 5 6 4 5 3 1 6 3 4 10 17 19 23 22 23
8 3 38 50 11 10 4 4 6 6 7 7 5 5 4 7 5 7 6 4 3 6 10 7 3 3 4 2 1 6 6 4 4 2 6 6 5 1 3 6 15 23 24 25 24
8 3 9 25 6 16 14 9 7 7 7 8 5 7 4 2 1 6 9 1 3 3 2 4 5 6 7 4 5 7 9 9 6 3 4 6 3 5 7 8 10 20 26 27 27
11 4 6 7 12 11 18 14 13 8 3 13 2 8 10 6 3 4 2 3 3 1 2 3 6 2 3 2 1 4 9 19 17 13 8 6 11 6 11 12 20 23 24 26 28
6 5 6 4 15 11 16 14 24 8 14 14 12 21 12 9 10 9 8 5 5 3 4 1 1 2 3 1 1 5 7 16 22 15 10 6 7 8 2 22 20 26 28 31 33
18 25 8 7 10 11 12 20 27 25 13 24 24 13 16 15 10 13 9 9 12 10 6 5 5 3 4 2 1 10 12 18 13 14 22 13 17 6 6 9 26 31 34 35 35
Wind_Direction
317 299 291 286 292 298 303 310 315 314 312 310 306 302 274 303 8 305 282 287 285 264 138 110 111 112 94 75 25 341 293 181 90 111 98 122 199 137 261 271 281 282 301 317 318
331 317 299 292 287 287 297 302 308 311 309 306 303 302 291 273 281 278 292 292 273 206 148 93 152 129 63 27 12 6 300 54 15 29 129 150 263 116 266 240 245 34 325 328 331
331 332 318 303 298 292 287 297 300 302 305 305 302 295 296 283 318 228 271 281 256 195 180 161 156 159 114 115 10 31 2 101 53 50 89 121 262 182 296 286 44 349 330 336 334
322 336 328 317 306 300 295 293 297 299 299 302 301 292 283 236 289 276 269 281 208 183 150 147 161 197 159 151 118 103 46 60 112 70 31 152 360 265 232 315 347 337 332 336 332
308 323 336 329 319 306 295 297 294 294 296 295 299 299 275 280 254 279 272 271 195 175 154 165 205 170 147 123 131 95 125 99 104 98 25 333 264 279 285 247 302 334 348 342 343
296 300 319 333 327 312 301 291 294 291 288 291 293 296 256 252 264 251 259 245 211 162 175 168 233 177 95 55 354 114 125 122 141 136 323 312 282 6 171 210 314 330 353 356 349
291 290 291 305 328 315 306 295 291 290 286 282 286 288 254 248 272 237 226 171 154 152 169 137 148 181 122 110 110 125 112 150 178 189 268 310 254 227 230 174 309 345 352 356 350
277 288 284 286 297 311 308 300 291 286 284 279 267 276 266 259 244 203 158 117 119 142 163 152 133 120 90 122 116 190 169 189 134 175 206 243 278 190 154 152 332 3 9 354 346
268 277 283 283 281 291 313 306 291 285 277 272 257 243 252 244 200 189 170 160 117 122 127 131 122 108 138 157 116 196 249 167 167 197 298 198 277 124 153 192 277 23 7 339 336
261 274 276 280 275 274 295 305 291 285 269 254 230 248 238 190 202 187 176 153 138 131 114 131 160 150 179 179 202 185 226 208 210 181 221 239 257 276 195 208 248 321 359 305 334
263 262 267 278 266 268 274 305 311 289 236 217 195 208 184 209 174 181 176 154 141 203 192 184 215 202 188 193 102 306 51 149 96 120 289 246 267 269 270 184 208 223 194 274 341
260 255 258 266 259 261 237 192 292 303 303 254 239 231 210 168 162 196 173 159 200 200 110 139 230 77 70 111 115 100 150 243 331 149 210 341 278 251 244 223 179 174 215 241 307
257 256 258 242 249 250 233 215 196 326 265 228 224 215 209 188 203 190 181 177 207 220 198 201 74 123 131 152 182 193 228 195 227 202 230 296 287 180 203 152 159 209 220 214 245
249 250 260 229 224 235 238 207 180 203 314 220 211 203 191 160 211 181 179 174 184 212 181 7 135 170 175 175 90 206 76 6 157 300 280 182 282 238 172 177 201 202 199 186 213
252 248 239 243 223 216 225 164 182 119 222 98 143 183 176 172 143 176 177 166 168 137 135 181 155 181 189 111 84 83 199 7 344 272 11 215 91 253 106 215 217 190 184 176 192
245 234 246 246 217 205 158 148 133 85 240 207 129 153 156 191 134 123 157 138 96 111 46 68 1 339 54 89 24 135 142 190 262 271 342 199 166 252 188 202 156 167 165 176 179
243 239 244 239 224 200 160 140 102 204 319 184 186 161 199 163 152 188 170 171 154 115 172 135 179 100 177 98 75 215 183 26 354 3 227 51 151 251 146 148 150 157 164 173 184
246 236 241 240 229 209 177 121 201 196 207 217 123 157 177 143 203 207 162 190 239 220 124 152 250 174 184 225 177 189 125 172 203 202 236 27 230 252 132 110 148 162 170 171 171
251 244 215 219 222 213 177 222 192 189 170 153 141 134 204 156 145 178 197 204 201 196 166 170 133 21 70 15 356 174 188 133 97 61 42 206 254 340 117 131 155 151 164 168 181
259 259 223 216 215 184 217 225 224 232 132 167 168 166 179 168 167 185 181 213 208 189 231 185 103 332 98 316 250 355 359 107 312 186 246 268 271 235 204 200 197 181 180 181 186
257 255 216 205 187 176 215 201 186 235 211 166 182 143 172 173 177 199 210 300 192 176 170 135 113 88 116 214 181 165 187 203 85 185 205 265 260 272 209 186 190 187 188 185 184
245 250 191 177 187 166 203 169 175 165 208 147 145 144 169 158 178 226 221 258 222 155 172 203 103 160 198 55 27 318 220 172 140 219 245 133 273 353 38 158 171 180 186 186 194
216 236 181 173 196 195 132 144 191 138 159 169 182 139 135 165 182 202 204 316 354 142 164 189 175 96 354 5 358 225 202 235 110 71 209 148 260 353 49 98 166 168 180 183 190
187 209 200 216 173 196 173 168 178 223 165 138 150 91 113 224 6 214 167 341 9 37 273 158 168 172 184 165 130 191 198 191 165 148 173 222 296 213 202 194 189 174 179 182 188
207 216 212 211 207 212 187 177 175 162 239 151 31 195 167 180 164 230 108 116 17 246 297 145 188 151 116 86 302 219 195 189 197 204 178 205 219 228 200 196 196 184 181 185 192
232 197 210 258 222 204 188 191 188 165 156 193 208 191 189 172 190 184 154 189 152 170 202 187 153 81 299 12 55 263 231 198 212 221 274 238 270 235 266 197 184 192 191 193 200
231 261 264 230 189 197 200 189 197 187 208 190 195 169 200 206 101 95 112 120 147 157 175 162 134 119 255 319 0 271 197 198 210 214 212 208 224 164 198 192 190 194 202 204 206